Temp
21 19 18 19 19 18 16 15 15 15 15 14 14 13 13 13 13 13 13 12 12 12
20 20 18 18 20 18 17 16 15 15 14 15 14 13 13 12 12 12 12 12 12 12
19 19 18 18 19 18 17 16 15 14 14 14 14 13 13 12 12 12 12 12 12 12
18 18 18 18 18 18 17 17 15 14 14 14 14 13 13 12 12 12 12 12 12 11
17 17 17 18 18 18 17 16 15 14 14 13 13 13 13 12 13 12 12 12 11 11
16 16 16 17 18 18 18 16 15 14 14 14 13 13 13 13 13 13 12 12 12 11
15 15 16 16 17 17 17 16 15 14 14 14 13 13 13 13 13 13 12 12 11 11
14 14 15 15 16 17 17 16 15 15 14 14 13 13 13 13 12 12 12 11 11 11
12 13 14 15 15 16 17 16 16 15 14 13 13 13 12 12 12 12 12 11 11 11
12 12 13 14 14 15 16 16 16 15 14 13 13 13 12 11 11 11 11 11 11 10
12 12 12 13 14 14 15 16 15 15 14 13 13 12 11 10 11 11 11 11 10 10
12 11 10 11 13 14 15 15 15 15 14 13 12 11 10 9 10 10 10 10 10 9
11 11 10 11 12 13 14 14 15 14 13 13 12 10 9 9 10 11 11 10 10 9
10 10 10 10 11 13 14 14 14 14 13 12 12 9 9 9 10 11 11 10 10 9
Height
720 723 728 731 732 734 736 737 743 750 757 762 768 774 778 783 787 790 793 796 798 800
714 715 719 724 724 726 731 733 737 742 749 757 763 769 774 779 783 786 789 792 795 797
709 709 711 717 718 718 724 728 730 736 742 751 757 764 769 775 779 783 786 789 791 792
706 705 705 706 711 712 718 722 724 728 735 743 751 757 764 769 773 777 782 784 787 788
702 701 700 699 702 707 711 717 720 723 728 735 744 751 758 763 768 772 776 780 782 784
699 698 695 694 696 701 704 710 715 718 722 728 736 744 751 757 762 766 770 774 776 778
698 695 691 690 692 695 699 704 709 712 715 720 729 737 745 751 757 761 766 769 771 773
696 693 690 687 688 690 693 698 704 707 709 715 723 731 738 745 752 756 761 765 767 768
695 687 687 684 683 684 687 692 698 702 705 709 717 725 732 740 747 752 757 759 762 763
691 689 686 682 679 678 681 687 693 699 702 706 712 719 727 736 742 749 753 754 757 759
687 683 679 675 675 673 677 681 687 694 699 704 710 715 723 731 739 745 748 750 754 755
677 673 672 669 669 670 672 677 683 690 695 700 707 713 720 728 736 741 743 747 750 752
671 667 666 664 664 666 668 674 678 686 692 697 705 710 718 726 732 736 740 744 746 748
663 657 659 657 661 660 663 670 673 681 687 694 700 708 716 722 727 732 736 740 742 744
Wind_Speed
33 37 37 36 33 33 33 36 36 37 33 29 27 25 23 20 19 17 17 15 14 11
32 33 33 36 35 34 33 31 35 37 33 30 28 27 24 21 20 18 17 16 15 14
27 31 31 33 37 33 31 32 34 36 34 31 29 27 25 22 19 19 17 16 15 14
23 27 29 32 37 32 32 32 34 36 35 32 31 29 26 22 20 20 19 16 15 14
21 22 26 30 33 32 31 31 33 35 35 33 31 29 28 25 22 21 20 18 16 15
22 21 24 28 30 33 32 32 33 34 35 34 33 30 28 26 23 21 20 18 17 15
23 22 21 24 28 31 32 32 33 35 35 34 33 30 28 26 23 20 19 17 16 15
26 22 22 23 26 29 32 33 34 34 34 33 32 30 29 26 23 20 18 16 15 15
26 25 23 23 25 28 29 32 33 33 32 33 30 31 30 26 22 19 17 16 15 13
24 24 24 24 25 26 28 30 31 31 31 31 29 32 32 28 20 18 17 15 13 12
25 21 24 22 24 24 26 30 30 30 30 29 27 31 31 30 20 17 14 13 12 12
27 24 25 23 24 25 26 29 28 29 29 28 26 31 30 26 21 16 14 13 12 12
31 26 26 25 26 26 26 28 28 28 29 28 26 30 31 28 18 15 13 12 11 13
33 28 28 25 28 26 26 28 29 29 29 29 26 29 30 28 17 14 12 10 9 9
Wind_Direction
240 226 228 232 218 208 200 195 194 192 193 193 193 194 194 198 202 205 210 216 219 227
258 233 227 234 235 210 208 200 191 190 189 191 192 192 193 197 201 205 208 214 220 228
267 248 232 231 239 209 210 201 189 187 187 188 189 189 192 197 202 205 210 215 218 224
276 259 243 235 230 216 211 202 191 185 183 185 187 189 193 197 200 205 210 213 222 229
286 266 253 243 225 225 209 203 194 184 181 183 186 188 193 196 201 205 210 214 222 231
297 272 257 244 232 224 211 204 194 186 183 181 185 188 193 197 203 205 209 213 221 232
309 287 261 247 240 222 214 203 196 190 183 181 183 187 192 197 203 206 211 216 222 236
314 296 271 246 240 229 216 205 198 191 183 180 182 186 189 194 199 204 209 217 229 238
305 301 277 256 233 234 217 207 197 193 183 178 182 186 189 188 194 202 210 219 232 245
298 289 272 253 232 232 219 203 198 194 184 180 182 187 186 187 187 199 209 221 232 243
300 292 283 255 238 225 219 202 197 192 185 180 181 182 182 189 189 199 211 223 235 248
298 288 284 261 235 224 217 201 195 191 182 177 175 183 181 181 190 203 215 225 236 245
289 281 267 252 233 221 211 198 190 187 180 176 174 182 178 179 184 197 211 224 236 247
289 279 258 240 229 211 203 196 186 184 179 175 174 178 178 182 186 196 207 223 236 253